Location: Le Rio
(46.7333°N, 3.1500°E)
Time: 13:44:30
(UTC+00:00)

Daily predictions for brighter satellites

Satellite Brightness Start Highest point End
(mag) Time Altitude Azimuth Time Altitude Azimuth Time Altitude Azimuth
Cosmos 1703 4.1 20:17:01 10° SSE 20:20:28 31° E 20:23:55 10° NNE
COSMOS 2428 4.1 20:17:32 10° SE 20:21:17 18° E 20:25:01 10° ENE
Geosat 4.5 20:16:39 10° SSE 20:21:37 61° WSW 20:26:36 10° NW
Cosmos 1812 Rocket 3.5 20:17:59 10° N 20:22:21 80° E 20:26:40 10° SSE
Cosmos 1844 4.2 20:17:58 10° NNW 20:23:35 50° ENE 20:29:08 10° SE
Cosmos 2322 4.5 20:19:54 10° SSE 20:24:54 32° ESE 20:29:56 10° NE
CZ-2C R/B 4.3 20:21:28 10° N 20:26:13 67° WNW 20:30:57 10° SSW
Cosmos 1602 Rocket 3.7 20:24:46 10° S 20:29:10 85° W 20:33:40 10° N
Cosmos 2263 Rocket 3.9 20:27:05 10° NW 20:31:48 29° WSW 20:36:30 10° SSW
Cosmos 1709 Rocket 4.5 20:26:10 10° SSE 20:32:02 43° E 20:38:00 10° NNE
Nadezhda 1 Rocket 4.1 20:26:31 10° N 20:32:58 83° E 20:39:22 10° S
Atlas Centaur 2 3.9 20:30:20 10° SSW 20:34:11 18° S 20:38:35 10° SE
MetOp-B 4.2 20:28:59 10° SSE 20:34:20 81° ENE 20:39:44 10° NNW
Terra 3.3 20:32:13 10° ESE 20:35:57 24° ENE 20:39:43 10° N
Cosmos 2219 Rocket 3.2 20:32:33 10° SSE 20:37:09 27° ESE 20:41:46 10° NE
Cosmos 2360 Rocket 2.2 20:33:11 10° SSW 20:38:48 74° ESE 20:44:29 10° NNE
IGS 5A 3.6 20:35:55 10° SSE 20:40:00 63° ENE 20:44:08 10° N
Cosmos 2333 Rocket 2.9 20:41:46 10° S 20:46:50 35° ESE 20:51:58 10° NE
ATLAS 2AS CENTAUR R/B 4.3 20:43:22 10° NW 20:50:12 32° NNE 20:56:33 10° E
Cosmos 1315 Rocket 4.1 20:47:40 10° N 20:51:13 27° ENE 20:54:13 13° SE
Resurs 01 Rocket 2.7 20:47:42 10° S 20:51:52 42° W 20:56:05 10° NNW
Cosmos 1818 3.6 20:48:34 10° SW 20:54:00 88° SE 20:59:30 10° NE
CZ-2C R/B 4.4 20:49:17 10° N 20:54:12 36° WNW 20:58:59 10° SW
Cosmos-2242 3.0 20:50:32 10° N 20:54:53 79° E 20:59:06 11° SSE
Cosmos 773 Rocket 4.2 20:51:47 10° S 20:56:54 52° ESE 21:02:02 10° NNE
SL-16 R/B 3.7 20:52:34 10° SW 20:57:53 40° NW 21:03:15 10° NNE
Cosmos 2221 4.1 20:56:13 10° NNE 20:59:38 22° ENE 21:02:29 12° ESE
ERS-1 Rocket 3.2 20:56:51 13° SSE 21:01:18 61° ENE 21:06:18 10° N
GEOS 3 Rocket 3.7 20:58:51 10° NE 21:04:17 76° SE 21:09:40 10° SW
USA 215 3.4 21:01:22 10° ENE 21:07:46 52° SE 21:14:06 10° SSW
Cosmos 2278 Rocket 3.4 21:03:18 10° NNW 21:08:25 33° NE 21:13:09 12° ESE
ATLAS 5 CENTAUR R/B 1.7 21:06:34 10° SW 21:10:42 77° NW 21:15:24 10° NE
Meteor 1-11 4.3 21:06:04 10° S 21:11:37 65° E 21:17:15 10° NNE
USA 245 3.8 21:08:35 11° S 21:11:37 51° W 21:15:37 10° NNW
Cosmos 1844 Rocket 3.0 21:07:56 10° NNW 21:13:26 61° WSW 21:18:16 13° S
Gblst 52 Del rocket 4.5 21:08:14 10° WNW 21:13:53 73° NNE 21:20:11 10° ESE
Cosmos 1400 Rocket 3.2 21:10:16 10° NNW 21:14:13 62° W 21:17:41 12° S
Cosmos 1758 Rocket 4.2 21:10:17 10° SSW 21:14:43 59° WNW 21:19:11 10° N
SPOT 5 2.9 21:13:56 16° SSE 21:18:01 74° ENE 21:22:49 10° N
Lacrosse 5 rocket 4.1 21:16:15 10° WNW 21:19:27 20° N 21:22:31 10° NE
Spot 2 Rocket 4.2 21:17:00 10° S 21:21:55 50° W 21:26:54 10° NNW
USA 81 4.0 21:19:52 13° S 21:24:35 72° E 21:29:52 10° N
Cosmos 2058 4.4 21:25:00 18° ESE 21:26:34 22° E 21:29:46 10° NE
BREEZE M DEB (TANK) 2.0 21:24:46 10° WNW 21:27:10 43° SSW 21:27:39 35° SSE
Cosmos 2181 Rocket 4.0 21:22:45 10° N 21:29:09 86° E 21:34:15 16° S
Cosmos 2074 Rocket 4.3 21:29:16 18° SSE 21:33:46 50° E 21:39:44 10° NNE
SPOT 1/Viking Rocket 4.3 21:31:53 12° S 21:36:32 49° W 21:41:33 10° NNW
Cosmos 1953 Rocket 4.0 21:33:33 10° SSW 21:37:49 60° WNW 21:42:08 10° N
USA 267 3.5 21:34:05 10° ESE 21:40:29 68° NNE 21:47:00 10° NW
Cosmos 2084 3.5 21:41:09 10° NW 21:45:39 89° SW 21:48:05 26° SE
Cosmos 1842 Rocket 3.5 21:42:19 10° N 21:46:42 73° E 21:49:02 27° SSE
MTI 3.8 21:49:20 10° NNE 21:52:23 55° E 21:53:10 40° SSE
Cosmos 923 Rocket 4.3 21:52:19 24° SSE 21:55:14 48° ESE 22:00:20 10° NNE
ATLAS CENTAUR R/B 1.2 21:53:26 10° NW 21:57:06 63° WSW 21:58:26 35° SSE
Cosmos 1825 3.8 21:58:09 19° E 21:58:42 19° E 22:01:26 10° NE
Cosmos 1980 4.0 21:56:55 24° SSE 22:00:00 46° ESE 22:05:23 10° NE
COSMOS 2428 2.9 21:59:13 10° SSW 22:04:52 75° WNW 22:10:35 10° NNE
Cosmos 1869 3.3 22:03:39 10° N 22:07:39 80° W 22:09:22 33° S
NOSS 0 Rocket 3.9 22:07:31 17° SSW 22:12:17 69° ESE 22:18:26 10° NNE
Terra 2.5 22:10:34 21° SSW 22:13:26 47° W 22:18:02 10° NNW
NOSS 3-4 (A) 4.0 22:07:18 10° NW 22:14:13 68° NE 22:19:46 20° SE
NOSS 3-4 (C) 4.0 22:07:25 10° NW 22:14:19 68° NE 22:19:55 20° SE
Cosmos 2237 Rocket 2.3 22:14:58 25° S 22:18:13 60° ESE 22:23:51 10° NNE
Genesis I 3.7 22:18:36 38° SE 22:18:50 39° ESE 22:22:29 10° NE
BREEZE-M DEB 4.4 22:16:19 10° WNW 22:20:36 72° SSW 22:38:26 10° SE
Cosmos 2344 3.8 22:16:02 21° S 22:20:45 48° ESE 22:28:12 10° NE
Cosmos 2219 Rocket 3.0 22:15:20 10° SW 22:20:47 52° WNW 22:26:16 10° NNE
BREEZE-M R/B 4.4 22:12:07 10° WNW 22:21:20 43° SW 22:23:37 29° S
Elektron 1 4.2 22:21:21 42° S 22:22:16 61° SE 22:27:10 10° NE
Atlas Centaur 2 4.1 22:18:12 10° SW 22:21:20 17° SSW 22:21:20 17° SSW
NOSS 3-3 (A) 4.3 22:17:40 10° SW 22:23:33 66° NW 22:30:13 10° NE
NOSS 3-3 (C) 4.3 22:17:45 10° SW 22:23:39 67° NW 22:30:22 10° NE
DELTA 2 R/B (1) 4.1 22:23:35 10° SW 22:28:35 35° SSE 22:30:03 30° SE
Cosmos 2333 Rocket 3.4 22:25:37 10° SW 22:31:00 42° NW 22:36:28 10° NNE
Thor Agena Rocket 3.5 22:26:04 10° NNE 22:31:10 63° ESE 22:33:18 34° S
Cosmos 2184 Rocket 4.3 22:27:10 18° SSW 22:31:55 65° WNW 22:38:13 10° N
Cosmos 2221 3.5 22:33:16 10° NNW 22:37:21 39° W 22:39:20 25° SW
BREEZE-M DEB (TANK) 1.8 22:36:36 10° WNW 22:40:41 65° NNE 22:41:22 43° ENE
Iridium 2 3.6 22:37:44 10° N 22:41:35 86° E 22:42:26 53° S
Cosmos 1371 Rocket 4.0 22:36:42 10° NNW 22:41:59 79° ENE 22:44:15 35° SSE
ATLAS 2AS CENTAUR R/B 2.8 22:34:35 10° NW 22:42:14 87° NE 22:46:25 27° SE
Cosmos 1892 3.3 22:41:59 31° SW 22:43:27 50° WNW 22:47:10 10° N
EO 1 Del DPAF 3.1 22:40:28 10° NNE 22:44:14 75° ESE 22:44:59 54° S
Cosmos 1766 Rocket 4.3 22:44:24 34° ESE 22:45:19 38° E 22:49:24 10° NNE
MOS 1-B Rocket 4.4 22:38:23 10° NNE 22:46:10 76° ESE 22:49:56 29° S
Okean 3 Rocket 4.0 22:47:02 39° SE 22:48:06 47° E 22:52:22 10° NNE
Aureole 2 Rocket 3.0 22:46:20 10° N 22:48:59 36° ENE 22:48:59 36° ENE
USA 215 3.8 22:44:24 10° NE 22:50:52 62° NNW 22:57:17 10° WSW
Cosmos 2112 Rocket 4.0 22:48:23 29° SSW 22:51:15 88° WNW 22:56:39 10° NNE
Cosmos 1606 3.3 22:47:48 10° N 22:51:33 44° ENE 22:52:19 39° ESE
Cosmos 2278 Rocket 2.8 22:47:16 10° NW 22:52:40 47° WSW 22:54:59 30° SSW
Cosmos 2297 4.1 22:48:32 10° NNW 22:54:14 59° ENE 22:57:11 28° SE
Cosmos 158 Rocket 3.9 22:52:56 28° SSW 22:55:28 75° WNW 23:00:24 10° NNE
Cosmos 2366 rocket 4.5 22:56:35 30° SE 22:59:17 48° E 23:05:20 10° NNE
Lacrosse 5 rocket 3.7 22:56:28 10° NW 22:59:44 23° NNE 23:02:52 10° ENE
Cosmos 1943 Rocket 3.4 22:55:31 10° NNW 23:00:42 35° NE 23:04:40 16° ESE
Spot 4 4.0 22:59:07 39° SSW 23:00:47 64° WSW 23:05:33 10° NNW
SL-16 R/B 2.5 23:00:46 37° SSE 23:02:35 50° ESE 23:08:04 10° NE
TIMED 4.4 23:01:49 46° SSW 23:03:05 86° ESE 23:07:30 10° NNE
Cosmos 2058 4.2 23:01:10 21° SW 23:03:17 34° WNW 23:07:05 10° N
Cosmos 1408 3.3 23:03:24 36° WSW 23:04:18 44° WNW 23:07:45 10° N
Cosmos 2056 Rocket 3.5 23:00:30 10° NNW 23:05:56 78° WSW 23:07:58 40° S
Cosmos 2341 Rocket 4.0 23:11:46 32° SSW 23:14:50 83° W 23:21:06 10° N
Cosmos 332 Rocket 4.4 23:14:51 10° NNW 23:19:31 49° ENE 23:21:28 31° ESE
Cosmos 1680 Rocket 4.4 23:15:58 17° SW 23:19:46 46° WNW 23:24:54 10° NNE
Meteor 2-3 Rocket 4.0 23:21:02 37° SSE 23:23:00 57° E 23:28:35 10° NNE
USA 267 3.6 23:21:24 34° S 23:23:42 45° SW 23:29:57 10° WNW
Cosmos 2151 3.5 23:23:52 37° SW 23:25:12 52° WNW 23:29:24 10° N
IRIDIUM 104 4.3 23:23:26 43° S 23:25:14 83° E 23:30:29 10° N
Helios 1A 3.3 23:24:53 44° SE 23:25:54 58° ENE 23:30:01 10° N
Cosmos 405 4.2 23:25:26 10° N 23:28:40 32° ENE 23:29:08 31° E
Meteor 1-26 Rocket 4.4 23:26:49 10° N 23:32:51 75° ENE 23:35:20 37° SSE
Cosmos 1452 Rocket 3.7 23:27:43 10° NNW 23:33:00 68° ENE 23:35:06 36° SE
CZ-4C R/B 3.9 23:26:52 10° NNW 23:33:29 45° NE 23:41:08 10° ESE
SL-8 Rocket 4.0 23:30:59 35° SSW 23:33:48 80° W 23:40:00 10° N
Cosmos 1825 3.5 23:32:56 27° WSW 23:33:59 32° WNW 23:37:26 10° N
IRIDIUM 114 4.3 23:32:35 42° S 23:34:23 82° W 23:39:39 10° N
Cosmos 1340 2.5 23:34:23 72° SSE 23:34:40 79° E 23:38:27 10° NNE
COSMOS 2455 3.2 23:28:43 10° NNW 23:34:44 64° NE 23:38:24 24° SE
ALOS 2 3.0 23:35:27 44° SW 23:36:21 52° W 23:40:40 10° NNW
Cosmos 1408 Rocket 3.5 23:35:56 55° S 23:36:50 79° E 23:41:15 10° NNE
Cosmos 1933 3.3 23:33:38 10° NNW 23:37:40 72° W 23:38:13 60° SSW
Cosmos 1151 Rocket 3.1 23:34:54 10° NNW 23:39:12 66° W 23:40:03 52° SSW
Meteor 2-12 Rocket 4.4 23:37:27 37° SSW 23:40:06 85° W 23:46:17 10° N
IRIDIUM 103 4.4 23:41:42 40° SSW 23:43:33 69° W 23:48:46 10° N
APEX 3.4 23:42:17 10° NNW 23:44:22 46° N 23:44:22 46° N
Cosmos 44 3.1 23:43:37 40° SW 23:45:07 71° NW 23:49:34 10° NNE
Cosmos 1727 Rocket 4.0 23:39:04 10° N 23:45:20 81° E 23:48:04 36° SSE
Cosmos 2369 Rocket 2.8 23:39:56 10° NNW 23:45:24 51° ENE 23:48:49 22° SE
Cosmos 1500 Rocket 4.0 23:44:49 42° SE 23:45:40 48° E 23:49:55 10° NNE
SL-4 R/B 3.6 23:48:59 15° NNW 23:48:59 15° NNW 23:49:29 10° NNW
GP-B 3.7 23:43:21 10° N 23:47:39 49° W 23:48:50 38° SW
Cosmos 371 Rocket 3.3 23:44:25 10° NNW 23:49:15 67° WSW 23:50:25 49° S
SeaSat 1 4.5 23:48:02 10° ENE 23:50:29 14° ESE 23:51:20 13° ESE
Helios 1B rocket 3.3 23:51:01 10° NNE 23:54:50 36° E 23:55:23 34° ESE
CREW DRAGON DEMO-1 DEB 3.7 23:54:49 39° WNW 23:55:30 48° NNW 23:58:29 10° ENE
